星链-31009 (STARLINK-31009 )

导读

STARLINK-31009是美国太空探索技术公司(SpaceX)星链星座的卫星,于北京时间2023年12月7日08:00发射,属于星链低轨互联网星座的组成部分。该卫星运行在近地轨道,近地点约546公里、远地点约548公里,轨道倾角53.05°,旨在为全球提供低延迟高速卫星互联网服务,目前仍在轨正常工作,推进星链星座全球覆盖建设。

基本信息
目录编号:
58530
目录名称:
STARLINK-31009
国际标识:
2023-191Y
轨道中心:
EARTH
卫星名称:
星链-31009
卫星全名:
星链-31009 (STARLINK-31009 )
卫星状态:
在轨 (已飞行1002 天)
发射日期:
2023-12-07 UTC
国别 :
美国 (US)
星等 :
--
轨道信息
数据来源 国际轨道数据 AOE轨道数据
星历时间 2026-09-04T11:25:29+0800
7小时前
查看轨道信息
2026-09-03T23:00:00+0800
20小时前
查看轨道信息
半长轴 6861.188km 6861.178km
偏心率 0.0001348 0.000002
轨道倾角 43.002° 42.999°
近地点辐角 272.448° 178.916°
升交点赤经 175.599° 178.524°
平近点角 87.622° 210.816°
近地点 482.126km 483.027km
远地点 483.976km 483.055km
周期 94.267分钟 94.267分钟
每日圈数 15.275795 15.275828
详细信息
固有亮度:
5
最大亮度:
0.3
卫星平台:
Starlink v2.0 mini
覆盖范围:
全球
运营商:
太空探索技术公司
运营商所在国:
美国
制造商(研发单位):
太空探索技术公司
制造商所在国:
美国
使用方式:
暂无
卫星简介
星链(Starlink)计划是由太空探索技术公司(SpaceX)提出的一个巨型低轨卫星互联网星座项目,计划在2019年至2024年间在太空搭建由约1.2万颗卫星组成的“星链”网络,其中1584颗将部署在地球上空550千米处的近地轨道,并从2020年开始工作。该卫星仍在工作。
2D轨道图
3D轨道图
轨道高度分析图
轨道倾角分析图
轨道综合分析图
查看轨道综合分析图